,,PA_Meas_PMT16A,,PR_Meas_QMR101_102,,RH_Meas_QMH101,,SR_Meas_QMS101,,TA_Meas_QMH101,,GenWind,,GenWind,
time,status,PA,status,PR,status,RH,status,SR,status,TA,status,DirAvg,status,SpdAvg,
2013-09-30, 06:58:04,VALID,915.722,VALID,0,VALID,85.4432,VALID,53.6131,VALID,19.6443,VALID,49,VALID,0,
2013-09-30, 06:59:04,VALID,915.711,VALID,0,VALID,85.7329,VALID,55.2248,VALID,19.6443,VALID,91,VALID,0,
2013-09-30, 07:00:04,VALID,915.745,VALID,0,VALID,85.0849,VALID,56.9438,VALID,19.7028,VALID,92,VALID,0,
2013-09-30, 07:01:04,VALID,915.738,VALID,0,VALID,86.4038,VALID,58.6629,VALID,19.6443,VALID,124,VALID,0,
2013-09-30, 07:02:04,VALID,915.77,VALID,0,VALID,86.076,VALID,60.4894,VALID,19.5273,VALID,125,VALID,0,
2013-09-30, 07:03:04,VALID,915.794,VALID,0,VALID,86.2894,VALID,62.101,VALID,19.5273,VALID,125,VALID,0,
2013-09-30, 07:04:04,VALID,915.812,VALID,0,VALID,87.0899,VALID,63.9275,VALID,19.4868,VALID,125,VALID,0,
2013-09-30, 07:05:04,VALID,915.813,VALID,0,VALID,87.0137,VALID,65.6465,VALID,19.4883,VALID,125,VALID,0,
2013-09-30, 07:06:04,VALID,915.822,VALID,0,VALID,87.9209,VALID,67.473,VALID,19.4688,VALID,125,VALID,0,
2013-09-30, 07:07:04,VALID,915.838,VALID,0,VALID,88.0352,VALID,69.407,VALID,19.4103,VALID,125,VALID,0,
2013-09-30, 07:08:04,VALID,915.843,VALID,0,VALID,88.1877,VALID,71.2335,VALID,19.3908,VALID,125,VALID,0,
2013-09-30, 07:09:04,VALID,915.867,VALID,0,VALID,88.4774,VALID,73.2749,VALID,19.4298,VALID,125,VALID,0,
2013-09-30, 07:10:04,VALID,915.872,VALID,0,VALID,86.1675,VALID,75.2088,VALID,19.5078,VALID,119,VALID,0,
2013-09-30, 07:11:04,VALID,915.888,VALID,0,VALID,88.3783,VALID,77.1427,VALID,19.6833,VALID,118,VALID,0,
2013-09-30, 07:12:04,VALID,915.896,VALID,0,VALID,88.1191,VALID,79.0767,VALID,19.6623,VALID,118,VALID,0,
2013-09-30, 07:13:04,VALID,915.91,VALID,0,VALID,88.1801,VALID,81.0106,VALID,19.7238,VALID,118,VALID,0,
2013-09-30, 07:14:04,VALID,915.941,VALID,0,VALID,84.8258,VALID,82.9446,VALID,19.7223,VALID,118,VALID,0,
2013-09-30, 07:15:04,VALID,915.939,VALID,0,VALID,84.0329,VALID,84.8785,VALID,19.8603,VALID,84,VALID,0,
2013-09-30, 07:16:04,VALID,915.938,VALID,0,VALID,83.9262,VALID,86.8125,VALID,19.9578,VALID,82,VALID,0,
2013-09-30, 07:17:04,VALID,915.935,VALID,0,VALID,83.0114,VALID,88.7464,VALID,20.0749,VALID,82,VALID,0,
2013-09-30, 07:18:04,VALID,915.974,VALID,0,VALID,83.2782,VALID,90.8952,VALID,20.1919,VALID,97,VALID,0,
2013-09-30, 07:19:04,VALID,915.994,VALID,0,VALID,84.8486,VALID,93.044,VALID,20.2504,VALID,97,VALID,0,
2013-09-30, 07:20:04,VALID,915.978,VALID,0,VALID,84.8791,VALID,95.3003,VALID,20.2489,VALID,97,VALID,0,
2013-09-30, 07:21:04,VALID,915.967,VALID,0,VALID,85.8625,VALID,97.664,VALID,20.2489,VALID,127,VALID,0,
2013-09-30, 07:22:04,VALID,915.966,VALID,0,VALID,85.7787,VALID,99.8128,VALID,20.2489,VALID,131,VALID,0,
2013-09-30, 07:23:04,VALID,915.988,VALID,0,VALID,86.3809,VALID,101.747,VALID,20.3089,VALID,131,VALID,0,
2013-09-30, 07:24:04,VALID,916.011,VALID,0,VALID,85.9235,VALID,103.466,VALID,20.2879,VALID,131,VALID,0,
2013-09-30, 07:25:04,VALID,916.052,VALID,0,VALID,86.9908,VALID,105.077,VALID,20.3464,VALID,131,VALID,0,
2013-09-30, 07:26:04,VALID,916.062,VALID,0,VALID,86.7316,VALID,106.582,VALID,20.3269,VALID,131,VALID,0,
2013-09-30, 07:27:04,VALID,916.098,VALID,0,VALID,87.1128,VALID,108.408,VALID,20.2879,VALID,131,VALID,0,
2013-09-30, 07:28:04,VALID,916.14,VALID,0,VALID,86.9222,VALID,110.02,VALID,20.1903,VALID,141,VALID,0,
2013-09-30, 07:29:04,VALID,916.146,VALID,0,VALID,87.0518,VALID,111.416,VALID,20.0928,VALID,154,VALID,0,
2013-09-30, 07:30:04,VALID,916.154,VALID,0,VALID,87.0747,VALID,112.921,VALID,20.0148,VALID,154,VALID,0,
2013-09-30, 07:31:04,VALID,916.159,VALID,0,VALID,87.1738,VALID,114.532,VALID,19.9563,VALID,152,VALID,0,
2013-09-30, 07:32:04,VALID,916.154,VALID,0,VALID,87.7074,VALID,116.144,VALID,19.9368,VALID,152,VALID,0,
2013-09-30, 07:33:04,VALID,916.191,VALID,0,VALID,87.7455,VALID,117.756,VALID,19.8978,VALID,152,VALID,0,
2013-09-30, 07:34:04,VALID,916.165,VALID,0,VALID,88.1343,VALID,119.367,VALID,19.8198,VALID,136,VALID,0,
2013-09-30, 07:35:04,VALID,916.189,VALID,0,VALID,88.2868,VALID,120.764,VALID,19.7808,VALID,136,VALID,0,
2013-09-30, 07:36:04,VALID,916.228,VALID,0,VALID,88.2258,VALID,121.946,VALID,19.7808,VALID,144,VALID,0,
2013-09-30, 07:37:04,VALID,916.226,VALID,0,VALID,88.6451,VALID,123.88,VALID,19.8018,VALID,144,VALID,0,
2013-09-30, 07:38:04,VALID,916.203,VALID,0,VALID,88.9729,VALID,124.095,VALID,19.8003,VALID,146,VALID,0,
2013-09-30, 07:39:04,VALID,916.244,VALID,0,VALID,89.3007,VALID,123.45,VALID,19.8588,VALID,142,VALID,0,
2013-09-30, 07:40:04,VALID,916.245,VALID,0,VALID,89.5751,VALID,123.772,VALID,19.8978,VALID,142,VALID,0,
2013-09-30, 07:41:04,VALID,916.254,VALID,0,VALID,89.7657,VALID,121.623,VALID,19.9563,VALID,139,VALID,0,
2013-09-30, 07:42:04,VALID,916.272,VALID,0,VALID,89.6209,VALID,119.152,VALID,20.0148,VALID,143,VALID,0,
2013-09-30, 07:43:04,VALID,916.323,VALID,0,VALID,89.0949,VALID,118.078,VALID,20.0343,VALID,145,VALID,0,
2013-09-30, 07:44:04,VALID,916.336,VALID,0,VALID,88.8814,VALID,117.218,VALID,20.0718,VALID,153,VALID,0,
2013-09-30, 07:45:04,VALID,916.356,VALID,0,VALID,88.4469,VALID,117.433,VALID,20.1108,VALID,144,VALID,0,
2013-09-30, 07:46:04,VALID,916.406,VALID,0,VALID,88.4621,VALID,118.078,VALID,20.1903,VALID,147,VALID,0,
2013-09-30, 07:47:04,VALID,916.414,VALID,0,VALID,86.5715,VALID,119.26,VALID,20.2098,VALID,152,VALID,0,
2013-09-30, 07:48:04,VALID,916.421,VALID,0,VALID,84.9325,VALID,121.194,VALID,20.2684,VALID,142,VALID,0,
2013-09-30, 07:49:04,VALID,916.433,VALID,0,VALID,86.0836,VALID,123.987,VALID,20.3464,VALID,140,VALID,0,
2013-09-30, 07:50:04,VALID,916.434,VALID,0,VALID,85.6415,VALID,126.673,VALID,20.4049,VALID,140,VALID,0,
2013-09-30, 07:51:04,VALID,916.447,VALID,0,VALID,85.7863,VALID,129.252,VALID,20.4439,VALID,136,VALID,0,
2013-09-30, 07:52:04,VALID,916.449,VALID,0,VALID,85.6033,VALID,131.401,VALID,20.4829,VALID,122,VALID,0,
2013-09-30, 07:53:04,VALID,916.448,VALID,0,VALID,85.7787,VALID,133.764,VALID,20.5009,VALID,124,VALID,0,
2013-09-30, 07:54:04,VALID,916.452,VALID,0,VALID,85.8244,VALID,136.02,VALID,20.5609,VALID,127,VALID,0,
2013-09-30, 07:55:04,VALID,916.462,VALID,0,VALID,86.8155,VALID,136.45,VALID,20.5999,VALID,129,VALID,0,
2013-09-30, 07:56:04,VALID,916.445,VALID,0,VALID,87.2652,VALID,135.913,VALID,20.5999,VALID,128,VALID,0,
2013-09-30, 07:57:04,VALID,916.468,VALID,0,VALID,86.2742,VALID,135.591,VALID,20.5984,VALID,102,VALID,0,
2013-09-30, 07:58:04,VALID,916.459,VALID,0,VALID,86.9679,VALID,135.268,VALID,20.6585,VALID,102,VALID,0,
2013-09-30, 07:59:04,VALID,916.485,VALID,0,VALID,85.771,VALID,134.839,VALID,20.6569,VALID,105,VALID,0,
2013-09-30, 08:00:04,VALID,916.472,VALID,0,VALID,78.3306,VALID,135.161,VALID,20.6569,VALID,111,VALID,0,
2013-09-30, 08:01:04,VALID,916.481,VALID,0,VALID,82.8132,VALID,135.806,VALID,20.8145,VALID,114,VALID,0,
2013-09-30, 08:02:04,VALID,916.461,VALID,0,VALID,83.5069,VALID,136.88,VALID,20.8519,VALID,114,VALID,0,
2013-09-30, 08:03:04,VALID,916.499,VALID,0,VALID,84.9401,VALID,138.384,VALID,20.891,VALID,113,VALID,0,
2013-09-30, 08:04:04,VALID,916.508,VALID,0,VALID,85.1764,VALID,139.673,VALID,20.9511,VALID,113,VALID,0,
2013-09-30, 08:05:04,VALID,916.509,VALID,0,VALID,83.9643,VALID,140.748,VALID,20.9901,VALID,113,VALID,0,
2013-09-30, 08:06:04,VALID,916.545,VALID,0,VALID,83.7356,VALID,141.285,VALID,21.047,VALID,114,VALID,0,
2013-09-30, 08:07:04,VALID,916.517,VALID,0,VALID,84.8791,VALID,141.607,VALID,21.1266,VALID,114,VALID,0,
2013-09-30, 08:08:04,VALID,916.552,VALID,0,VALID,83.6822,VALID,141.607,VALID,21.1461,VALID,139,VALID,0,
2013-09-30, 08:09:04,VALID,916.565,VALID,0,VALID,83.8195,VALID,141.393,VALID,21.2031,VALID,139,VALID,0,
2013-09-30, 08:10:04,VALID,916.606,VALID,0,VALID,84.8181,VALID,141.93,VALID,21.2811,VALID,139,VALID,0,
2013-09-30, 08:11:04,VALID,916.63,VALID,0,VALID,84.2692,VALID,142.897,VALID,21.3608,VALID,138,VALID,0,
2013-09-30, 08:12:04,VALID,916.634,VALID,0,VALID,83.9567,VALID,144.079,VALID,21.3396,VALID,33,VALID,0,
2013-09-30, 08:13:04,VALID,916.62,VALID,0,VALID,81.6849,VALID,145.798,VALID,21.3608,VALID,56,VALID,0,
2013-09-30, 08:14:04,VALID,916.641,VALID,0,VALID,81.4714,VALID,147.946,VALID,21.3608,VALID,60,VALID,0,
2013-09-30, 08:15:04,VALID,916.673,VALID,0,VALID,82.3253,VALID,149.988,VALID,21.3786,VALID,60,VALID,0,
2013-09-30, 08:16:04,VALID,916.677,VALID,0,VALID,84.6885,VALID,151.599,VALID,21.4762,VALID,60,VALID,0,
2013-09-30, 08:17:04,VALID,916.72,VALID,0,VALID,84.2311,VALID,153.211,VALID,21.5542,VALID,60,VALID,0,
2013-09-30, 08:18:04,VALID,916.742,VALID,0,VALID,81.5096,VALID,154.93,VALID,21.6128,VALID,60,VALID,0,
2013-09-30, 08:19:04,VALID,916.754,VALID,0,VALID,80.6862,VALID,156.542,VALID,21.712,VALID,60,VALID,0,
2013-09-30, 08:20:04,VALID,916.762,VALID,0,VALID,80.8997,VALID,157.724,VALID,21.7883,VALID,60,VALID,0,
2013-09-30, 08:21:04,VALID,916.787,VALID,0,VALID,80.5033,VALID,158.368,VALID,21.8859,VALID,60,VALID,0,
2013-09-30, 08:22:04,VALID,916.782,VALID,0,VALID,81.2961,VALID,158.905,VALID,21.9851,VALID,60,VALID,0,
2013-09-30, 08:23:04,VALID,916.764,VALID,0,VALID,82.7903,VALID,159.228,VALID,22.003,VALID,60,VALID,0,
2013-09-30, 08:24:04,VALID,916.789,VALID,0,VALID,79.4055,VALID,159.335,VALID,21.9461,VALID,60,VALID,0,
2013-09-30, 08:25:04,VALID,916.806,VALID,0,VALID,80.7472,VALID,159.335,VALID,21.9461,VALID,60,VALID,0,
2013-09-30, 08:26:04,VALID,916.797,VALID,0,VALID,81.0903,VALID,159.228,VALID,21.9249,VALID,61,VALID,0,
2013-09-30, 08:27:04,VALID,916.78,VALID,0,VALID,79.8477,VALID,158.583,VALID,21.9249,VALID,59,VALID,0,
2013-09-30, 08:28:04,VALID,916.833,VALID,0,VALID,81.7001,VALID,156.972,VALID,21.964,VALID,58,VALID,0,
2013-09-30, 08:29:04,VALID,916.826,VALID,0,VALID,81.8679,VALID,154.823,VALID,22.0225,VALID,59,VALID,0,
2013-09-30, 08:30:04,VALID,916.832,VALID,0,VALID,82.1042,VALID,152.996,VALID,22.1005,VALID,59,VALID,0,
2013-09-30, 08:31:04,VALID,916.824,VALID,0,VALID,80.2593,VALID,151.599,VALID,22.1591,VALID,59,VALID,0,
2013-09-30, 08:32:04,VALID,916.85,VALID,0,VALID,80.8387,VALID,150.525,VALID,22.2371,VALID,59,VALID,0,
2013-09-30, 08:33:04,VALID,916.869,VALID,0,VALID,79.6342,VALID,149.773,VALID,22.2371,VALID,59,VALID,0,
2013-09-30, 08:34:04,VALID,916.87,VALID,0,VALID,80.549,VALID,149.128,VALID,22.2567,VALID,59,VALID,0,
2013-09-30, 08:35:04,VALID,916.886,VALID,0,VALID,77.0041,VALID,148.913,VALID,22.3169,VALID,51,VALID,0,
2013-09-30, 08:36:04,VALID,916.88,VALID,0,VALID,74.0462,VALID,148.913,VALID,22.3152,VALID,51,VALID,0,
2013-09-30, 08:37:04,VALID,916.922,VALID,0,VALID,71.2866,VALID,149.236,VALID,22.3542,VALID,42,VALID,0,
2013-09-30, 08:38:04,VALID,916.918,VALID,0,VALID,71.3628,VALID,149.666,VALID,22.3933,VALID,349,VALID,0,
2013-09-30, 08:39:04,VALID,916.927,VALID,0,VALID,70.1202,VALID,150.31,VALID,22.4518,VALID,349,VALID,0,
2013-09-30, 08:40:04,VALID,916.949,VALID,0,VALID,71.5686,VALID,151.062,VALID,22.5103,VALID,349,VALID,0,
2013-09-30, 08:41:04,VALID,916.946,VALID,0,VALID,70.9664,VALID,151.814,VALID,22.6079,VALID,349,VALID,0,
2013-09-30, 08:42:04,VALID,916.983,VALID,0,VALID,70.3108,VALID,152.566,VALID,22.7055,VALID,349,VALID,0,
2013-09-30, 08:43:04,VALID,916.998,VALID,0,VALID,73.7794,VALID,153.104,VALID,22.7853,VALID,349,VALID,0,
2013-09-30, 08:44:04,VALID,916.981,VALID,0,VALID,72.8951,VALID,154.178,VALID,22.7055,VALID,349,VALID,0,
2013-09-30, 08:45:04,VALID,917.002,VALID,0,VALID,73.0628,VALID,155.682,VALID,22.7072,VALID,349,VALID,0,
2013-09-30, 08:46:04,VALID,917.022,VALID,0,VALID,72.8112,VALID,157.938,VALID,22.6877,VALID,349,VALID,0,
2013-09-30, 08:47:04,VALID,917.044,VALID,0,VALID,74.2673,VALID,161.162,VALID,22.7463,VALID,349,VALID,0,
2013-09-30, 08:48:04,VALID,917.04,VALID,0,VALID,75.6395,VALID,165.03,VALID,22.725,VALID,349,VALID,0,
2013-09-30, 08:49:04,VALID,917.056,VALID,0,VALID,75.914,VALID,169.542,VALID,22.7463,VALID,349,VALID,0,
2013-09-30, 08:50:04,VALID,917.072,VALID,0,VALID,71.2179,VALID,174.914,VALID,22.7445,VALID,349,VALID,0,
2013-09-30, 08:51:04,VALID,917.123,VALID,0,VALID,73.0628,VALID,181.038,VALID,22.8031,VALID,349,VALID,0,
2013-09-30, 08:52:04,VALID,917.11,VALID,0,VALID,73.2077,VALID,187.915,VALID,22.8616,VALID,349,VALID,0,
2013-09-30, 08:53:04,VALID,917.155,VALID,0,VALID,71.1493,VALID,194.898,VALID,22.9415,VALID,349,VALID,0,
2013-09-30, 08:54:04,VALID,917.179,VALID,0,VALID,69.0529,VALID,201.56,VALID,22.9805,VALID,349,VALID,0,
2013-09-30, 08:55:04,VALID,917.176,VALID,0,VALID,70.4556,VALID,208.328,VALID,23.0391,VALID,349,VALID,0,
2013-09-30, 08:56:04,VALID,917.172,VALID,0,VALID,68.9767,VALID,215.097,VALID,23.0781,VALID,349,VALID,0,
2013-09-30, 08:57:04,VALID,917.179,VALID,0,VALID,70.1735,VALID,221.329,VALID,23.1367,VALID,349,VALID,0,
2013-09-30, 08:58:04,VALID,917.178,VALID,0,VALID,69.3197,VALID,227.131,VALID,23.2112,VALID,349,VALID,0,
2013-09-30, 08:59:04,VALID,917.214,VALID,0,VALID,69.5789,VALID,232.503,VALID,23.2893,VALID,349,VALID,0,
2013-09-30, 09:00:04,VALID,917.204,VALID,0,VALID,71.096,VALID,237.66,VALID,23.3869,VALID,349,VALID,0,
2013-09-30, 09:01:04,VALID,917.211,VALID,0,VALID,67.6121,VALID,243.139,VALID,23.3283,VALID,349,VALID,0,
2013-09-30, 09:02:04,VALID,917.253,VALID,0,VALID,68.5421,VALID,248.834,VALID,23.2911,VALID,349,VALID,0,
2013-09-30, 09:03:04,VALID,917.238,VALID,0,VALID,69.6704,VALID,255.28,VALID,23.1935,VALID,349,VALID,0,
2013-09-30, 09:04:04,VALID,917.286,VALID,0,VALID,67.4977,VALID,262.049,VALID,23.1349,VALID,349,VALID,0,
2013-09-30, 09:05:04,VALID,917.274,VALID,0,VALID,71.2408,VALID,269.355,VALID,23.1527,VALID,349,VALID,0,
2013-09-30, 09:06:04,VALID,917.283,VALID,0,VALID,71.9346,VALID,280.099,VALID,23.1136,VALID,349,VALID,0,
2013-09-30, 09:07:04,VALID,917.331,VALID,0,VALID,73.9624,VALID,287.835,VALID,23.1331,VALID,349,VALID,0,
2013-09-30, 09:08:04,VALID,917.329,VALID,0,VALID,75.6243,VALID,306.315,VALID,23.1527,INVALID,360,VALID,0,
2013-09-30, 09:09:04,VALID,917.325,VALID,0,VALID,77.2557,VALID,307.711,VALID,23.1349,VALID,349,VALID,0,
2013-09-30, 09:10:04,VALID,917.358,VALID,0,VALID,75.4947,VALID,293.207,VALID,23.1917,VALID,349,VALID,0,
2013-09-30, 09:11:04,VALID,917.399,VALID,0,VALID,78.018,VALID,289.232,VALID,23.252,VALID,349,VALID,0,
2013-09-30, 09:12:04,VALID,917.38,VALID,0,VALID,79.7257,VALID,288.909,VALID,22.9983,VALID,349,VALID,0,
2013-09-30, 09:13:04,VALID,917.387,VALID,0,VALID,75.0754,VALID,292.67,VALID,22.9202,VALID,349,VALID,0,
2013-09-30, 09:14:04,VALID,917.405,VALID,0,VALID,76.6001,VALID,297.934,VALID,22.9787,VALID,349,VALID,0,
2013-09-30, 09:15:04,VALID,917.428,VALID,0,VALID,74.1225,VALID,304.596,VALID,22.9787,VALID,349,VALID,0,
2013-09-30, 09:16:04,VALID,917.403,VALID,0,VALID,72.1861,VALID,318.348,VALID,22.9397,VALID,349,VALID,0,
2013-09-30, 09:17:04,VALID,917.439,VALID,0,VALID,73.3754,VALID,350.043,VALID,22.9592,VALID,349,VALID,0,
2013-09-30, 09:18:04,VALID,917.461,VALID,0,VALID,74.8619,VALID,373.358,VALID,22.9965,VALID,349,VALID,0,
2013-09-30, 09:19:04,VALID,917.436,VALID,0,VALID,76.3104,VALID,343.919,VALID,23.0356,VALID,349,VALID,0,
2013-09-30, 09:20:04,VALID,917.431,VALID,0,VALID,75.0754,VALID,371.639,VALID,23.0763,VALID,349,VALID,0,
2013-09-30, 09:21:04,VALID,917.427,VALID,0,VALID,74.7857,VALID,517.866,VALID,23.0959,VALID,349,VALID,0,
2013-09-30, 09:22:04,VALID,917.445,VALID,0,VALID,71.4619,VALID,366.159,VALID,23.1544,VALID,349,VALID,0,
2013-09-30, 09:23:04,VALID,917.452,VALID,0,VALID,73.8633,VALID,342.952,VALID,23.1331,VALID,349,VALID,0,
2013-09-30, 09:24:04,VALID,917.458,VALID,0,VALID,73.787,VALID,328.34,VALID,23.2502,VALID,349,VALID,0,
2013-09-30, 09:25:04,VALID,917.46,VALID,0,VALID,70.4251,VALID,332.96,VALID,23.2112,VALID,349,VALID,0,
2013-09-30, 09:26:04,VALID,917.485,VALID,0,VALID,72.8417,VALID,417.946,VALID,23.2893,VALID,349,VALID,0,
2013-09-30, 09:27:04,VALID,917.497,VALID,0,VALID,73.3601,VALID,377.763,VALID,23.3301,VALID,349,VALID,0,
2013-09-30, 09:28:04,VALID,917.503,VALID,0,VALID,75.9521,VALID,354.233,VALID,23.4064,VALID,350,VALID,0,
2013-09-30, 09:29:04,VALID,917.479,VALID,0,VALID,71.1875,VALID,336.828,VALID,23.4845,VALID,350,VALID,0,
2013-09-30, 09:30:04,VALID,917.526,VALID,0,VALID,74.153,VALID,322.216,VALID,23.6016,VALID,350,VALID,0,
2013-09-30, 09:31:04,VALID,917.505,VALID,0,VALID,71.8126,VALID,330.919,VALID,23.5235,VALID,346,VALID,0,
2013-09-30, 09:32:04,VALID,917.543,VALID,0,VALID,72.0032,VALID,345.961,VALID,23.4454,VALID,335,VALID,0,
2013-09-30, 09:33:04,VALID,917.558,VALID,0,VALID,70.5166,VALID,310.183,VALID,23.4046,VALID,333,VALID,0,
2013-09-30, 09:34:04,VALID,917.543,VALID,0,VALID,72.4377,VALID,290.306,VALID,23.4064,VALID,34,VALID,0,
2013-09-30, 09:35:04,VALID,917.566,VALID,0,VALID,73.3373,VALID,285.579,VALID,23.4064,VALID,357,VALID,0,
2013-09-30, 09:36:04,VALID,917.597,VALID,0,VALID,72.5749,VALID,284.719,VALID,23.4454,VALID,349,VALID,0,
2013-09-30, 09:37:04,VALID,917.604,VALID,0,VALID,72.6054,VALID,286.868,VALID,23.3869,VALID,306,VALID,0,
2013-09-30, 09:38:04,VALID,917.603,VALID,0,VALID,71.6754,VALID,290.951,VALID,23.3674,VALID,260,VALID,0,
2013-09-30, 09:39:04,VALID,917.605,VALID,0,VALID,71.5915,VALID,298.042,VALID,23.3869,VALID,260,VALID,0,
2013-09-30, 09:40:04,VALID,917.597,VALID,0,VALID,75.2126,VALID,308.356,VALID,23.4437,VALID,331,VALID,0,
2013-09-30, 09:41:04,VALID,917.649,VALID,0,VALID,72.2166,VALID,323.183,VALID,23.543,VALID,272,VALID,0,
2013-09-30, 09:42:04,VALID,917.649,VALID,0,VALID,71.4314,VALID,340.159,VALID,23.6193,VALID,281,VALID,0,
2013-09-30, 09:43:04,VALID,917.641,VALID,0,VALID,70.0211,VALID,359.498,VALID,23.7223,VALID,282,VALID,0,
2013-09-30, 09:44:04,VALID,917.657,VALID,0,VALID,70.5776,VALID,396.243,VALID,23.7578,VALID,275,VALID,0,
2013-09-30, 09:45:04,VALID,917.667,VALID,0,VALID,71.5686,VALID,431.054,VALID,23.8572,VALID,275,VALID,0,
2013-09-30, 09:46:04,VALID,917.635,VALID,0,VALID,70.1812,VALID,510.775,VALID,23.8944,VALID,275,VALID,0,
2013-09-30, 09:47:04,VALID,917.616,VALID,0,VALID,70.5928,VALID,592.968,VALID,24.0719,VALID,353,VALID,0,
2013-09-30, 09:48:04,VALID,917.61,VALID,0,VALID,70.2803,VALID,827.189,VALID,24.1482,VALID,295,VALID,0,
2013-09-30, 09:49:04,VALID,917.62,VALID,0,VALID,69.3883,VALID,581.471,VALID,24.2849,VALID,241,VALID,0,
2013-09-30, 09:50:04,VALID,917.609,VALID,0,VALID,70.6691,VALID,602.423,VALID,24.4039,VALID,250,VALID,0,
2013-09-30, 09:51:04,VALID,917.611,VALID,0,VALID,67.2614,VALID,573.521,VALID,24.4039,VALID,255,VALID,0,
2013-09-30, 09:52:04,VALID,917.592,VALID,0,VALID,67.3224,VALID,449.641,VALID,24.3239,VALID,11,VALID,0,
2013-09-30, 09:53:04,VALID,917.622,VALID,0,VALID,70.2879,VALID,451.575,VALID,24.2477,VALID,351,VALID,0,
2013-09-30, 09:54:04,VALID,917.602,VALID,0,VALID,72.6283,VALID,421.921,VALID,24.3044,VALID,292,VALID,0,
2013-09-30, 09:55:04,VALID,917.604,VALID,0,VALID,68.3515,VALID,403.764,VALID,24.3453,VALID,279,VALID,0,
2013-09-30, 09:56:04,VALID,917.637,VALID,0,VALID,69.7085,VALID,394.954,VALID,24.3453,VALID,276,VALID,0,
2013-09-30, 09:57:04,VALID,917.646,VALID,0,VALID,70.2269,VALID,391.408,VALID,24.402,VALID,360,VALID,0,
2013-09-30, 09:58:04,VALID,917.655,VALID,0,VALID,66.9107,VALID,389.582,VALID,24.4606,VALID,352,VALID,0,
2013-09-30, 09:59:04,VALID,917.659,VALID,0,VALID,69.335,VALID,383.35,VALID,24.4411,VALID,351,VALID,0,
2013-09-30, 10:00:04,VALID,917.654,VALID,0,VALID,69.3426,VALID,373.68,VALID,24.3825,VALID,41,VALID,0,
2013-09-30, 10:01:04,VALID,917.618,VALID,0,VALID,68.8776,VALID,362.614,VALID,24.283,VALID,293,VALID,0,
2013-09-30, 10:02:04,VALID,917.629,VALID,0,VALID,69.0834,VALID,352.3,VALID,24.3435,VALID,267,VALID,0,
2013-09-30, 10:03:04,VALID,917.617,VALID,0,VALID,72.7884,VALID,343.167,VALID,24.2654,VALID,359,VALID,0,
2013-09-30, 10:04:04,VALID,917.608,VALID,0,VALID,67.6654,VALID,334.572,VALID,24.2654,VALID,301,VALID,0,
2013-09-30, 10:05:04,VALID,917.609,VALID,0,VALID,71.2789,VALID,326.299,VALID,24.1873,VALID,24,VALID,0,
2013-09-30, 10:06:04,VALID,917.615,VALID,0,VALID,73.2915,VALID,320.39,VALID,24.1677,VALID,24,VALID,0,
2013-09-30, 10:07:04,VALID,917.621,VALID,0,VALID,72.1633,VALID,316.522,VALID,24.2068,VALID,26,VALID,0,
2013-09-30, 10:08:04,VALID,917.578,VALID,0,VALID,69.0224,VALID,314.158,VALID,24.0292,VALID,23,VALID,0,
2013-09-30, 10:09:04,VALID,917.598,VALID,0,VALID,70.5471,VALID,312.654,VALID,24.0115,VALID,7,VALID,0,
2013-09-30, 10:10:04,VALID,917.611,VALID,0,VALID,70.9893,VALID,311.15,VALID,23.953,VALID,13,VALID,0,
2013-09-30, 10:11:04,VALID,917.603,VALID,0,VALID,71.9803,VALID,309.108,VALID,23.9121,VALID,352,VALID,0,
2013-09-30, 10:12:04,VALID,917.623,VALID,0,VALID,70.2803,VALID,306.207,VALID,23.992,VALID,351,VALID,0,
2013-09-30, 10:13:04,VALID,917.606,VALID,0,VALID,73.97,VALID,301.91,VALID,24.0115,VALID,357,VALID,0,
2013-09-30, 10:14:04,VALID,917.615,VALID,0,VALID,69.8839,VALID,295.356,VALID,24.0115,VALID,303,VALID,0,
2013-09-30, 10:15:04,VALID,917.635,VALID,0,VALID,70.5318,VALID,284.827,VALID,23.992,VALID,237,VALID,0,
2013-09-30, 10:16:04,VALID,917.582,VALID,0,VALID,70.9969,VALID,274.62,VALID,24.0115,VALID,291,VALID,0,
2013-09-30, 10:17:04,VALID,917.584,VALID,0,VALID,70.8063,VALID,265.165,VALID,23.9121,VALID,353,VALID,0,
2013-09-30, 10:18:04,VALID,917.607,VALID,0,VALID,74.2521,VALID,256.677,VALID,23.7773,VALID,13,VALID,0,
2013-09-30, 10:19:04,VALID,917.598,VALID,0,VALID,72.087,VALID,249.049,VALID,23.6602,VALID,348,VALID,0,
2013-09-30, 10:20:04,VALID,917.607,VALID,0,VALID,75.7539,VALID,241.957,VALID,23.543,VALID,340,VALID,0,
2013-09-30, 10:21:04,VALID,917.587,VALID,0,VALID,74.0386,VALID,235.404,VALID,23.4632,VALID,1,VALID,0,
2013-09-30, 10:22:04,VALID,917.602,VALID,0,VALID,75.975,VALID,229.494,VALID,23.4259,VALID,359,VALID,0,
2013-09-30, 10:23:04,VALID,917.577,VALID,0,VALID,77.8579,VALID,223.585,VALID,23.3674,VALID,12,VALID,0,
2013-09-30, 10:24:04,VALID,917.553,VALID,0,VALID,78.0333,VALID,217.568,VALID,23.3478,VALID,12,VALID,0,
2013-09-30, 10:25:04,VALID,917.545,VALID,0,VALID,80.7472,VALID,211.981,VALID,23.3674,VALID,12,VALID,0,
2013-09-30, 10:26:04,VALID,917.547,VALID,0,VALID,78.971,VALID,206.394,VALID,23.3674,VALID,331,VALID,0,
2013-09-30, 10:27:04,VALID,917.569,VALID,0,VALID,76.9736,VALID,200.808,VALID,23.2698,VALID,260,VALID,0,
2013-09-30, 10:28:04,VALID,917.57,VALID,0,VALID,79.375,VALID,196.51,VALID,23.2893,VALID,260,VALID,0,
2013-09-30, 10:29:04,VALID,917.551,VALID,0,VALID,81.8602,VALID,194.468,VALID,23.3478,VALID,263,VALID,0,
2013-09-30, 10:30:04,VALID,917.543,VALID,0,VALID,81.3647,VALID,192.857,VALID,23.3478,VALID,261,VALID,0,
2013-09-30, 10:31:04,VALID,917.54,VALID,0,VALID,76.8288,VALID,191.675,VALID,23.2698,VALID,263,VALID,0,
2013-09-30, 10:32:04,VALID,917.536,VALID,0.2,VALID,79.6037,VALID,191.675,VALID,23.2502,VALID,344,VALID,0,
2013-09-30, 10:33:04,VALID,917.549,VALID,0,VALID,77.1795,VALID,193.072,VALID,23.1331,VALID,267,VALID,0,
2013-09-30, 10:34:04,VALID,917.524,VALID,0,VALID,76.9889,VALID,195.65,VALID,22.9575,VALID,256,VALID,0,
2013-09-30, 10:35:04,VALID,917.532,VALID,0,VALID,77.6902,VALID,198.659,VALID,22.7428,VALID,254,VALID,0,
2013-09-30, 10:36:04,VALID,917.518,VALID,0,VALID,78.6584,VALID,202.419,VALID,22.5672,VALID,280,VALID,0,
2013-09-30, 10:37:04,VALID,917.512,VALID,0,VALID,79.9468,VALID,207.684,VALID,22.5672,VALID,281,VALID,0,
2013-09-30, 10:38:04,VALID,917.48,VALID,0,VALID,81.8298,VALID,214.453,VALID,22.5477,VALID,281,VALID,0,
2013-09-30, 10:39:04,VALID,917.485,VALID,0,VALID,81.1513,VALID,222.511,VALID,22.5867,VALID,281,VALID,0,
2013-09-30, 10:40:04,VALID,917.453,VALID,0,VALID,79.5275,VALID,231.643,VALID,22.5672,VALID,281,VALID,0,
2013-09-30, 10:41:04,VALID,917.427,VALID,0,VALID,82.2719,VALID,240.668,VALID,22.6257,VALID,281,VALID,0,
2013-09-30, 10:42:04,VALID,917.431,VALID,0,VALID,83.9109,VALID,250.016,VALID,22.6843,VALID,280,VALID,0,
2013-09-30, 10:43:04,VALID,917.426,VALID,0,VALID,80.7015,VALID,260.222,VALID,22.6843,VALID,280,VALID,0,
2013-09-30, 10:44:04,VALID,917.388,VALID,0,VALID,80.6252,VALID,270.859,VALID,22.7038,VALID,195,VALID,0,